Voltar ao catálogo

LEMUR-2-FINNIAN

AtivoCiênciaSSO
NORAD 66782·PAYLOAD·🇺🇸 United States

Lançado Nov 28, 2025 de Vandenberg Space Force Base

Loading…

Próximas Passagens (próximas 24 horas)

TLE

AtualizadoSource: Space-Track

Época: Sep 14, 2026, 10:15 UTC

1 66782U 25276DW  26257.42725834  .00003764  00000-0  29912-3 0  9994
2 66782  97.5235 325.6576 0010721 147.8465 212.3416 15.00996672 33383

Acompanhe LEMUR-2-FINNIAN em tempo real com AllMySat

Download on the App Store